Theta_e
308 306 306 309 309 309 311 313 313 319 331 332 331 342 344 350 356 357 358 360 359 361 361 362 361 361 360 360 360 361 361 361
303 303 306 309 311 309 311 311 315 325 326 335 345 343 347 355 356 355 357 359 360 360 361 361 361 360 360 360 360 360 359 360
300 302 304 307 309 310 309 308 310 325 326 331 345 352 355 355 355 354 356 358 359 360 360 361 360 360 360 360 359 359 359 359
297 300 304 307 310 309 308 309 310 321 329 333 349 351 354 355 354 355 356 357 357 359 360 360 359 359 358 358 358 359 359 359
298 300 302 306 309 307 307 307 310 328 327 333 344 352 356 355 355 356 357 357 357 356 359 360 359 358 357 357 357 358 358 358
299 300 301 306 307 307 307 308 314 328 327 328 342 352 354 355 354 354 355 355 356 356 354 354 356 358 357 357 357 357 357 357
298 299 303 305 305 308 310 309 312 316 320 329 348 349 349 349 350 351 352 355 355 353 354 354 353 355 357 357 357 357 356 357
303 304 304 305 304 305 307 308 312 315 336 343 345 345 343 343 343 346 348 352 355 355 354 354 352 355 355 354 353 353 353 354
302 305 305 304 304 307 305 305 309 310 324 340 343 342 341 341 342 343 348 351 354 357 357 354 351 355 354 353 354 356 356 357
303 304 304 303 305 304 305 307 310 310 312 337 341 342 341 341 342 344 346 349 354 357 357 357 354 354 355 354 355 354 354 357
302 304 304 304 303 304 305 309 311 311 311 313 337 342 345 346 346 346 345 348 352 356 357 357 357 356 355 355 354 355 356 357
302 302 303 301 303 303 306 310 310 310 311 312 315 330 335 339 346 348 349 349 351 354 357 356 356 358 356 357 356 355 356 356
299 301 301 303 299 300 307 309 308 309 310 311 312 313 316 328 335 345 349 353 353 353 356 356 356 357 356 356 356 354 355 357
300 300 302 302 296 304 306 306 307 308 310 310 313 312 315 318 323 331 337 342 352 351 352 354 355 355 355 355 355 353 354 354
297 300 300 300 297 303 306 306 307 309 310 310 312 315 316 316 318 324 329 340 346 351 351 353 353 353 354 355 353 353 354 354
295 298 300 298 299 303 305 305 306 308 309 308 309 311 317 317 318 320 323 333 345 349 353 353 352 351 351 351 351 352 353 353
296 299 298 298 299 303 303 305 306 307 307 307 308 312 313 315 317 319 322 328 342 347 351 350 347 346 346 345 348 348 350 353
296 298 298 298 298 302 304 304 305 305 307 308 311 313 315 315 316 318 323 325 334 345 349 349 348 349 348 348 349 351 353 353
294 297 298 297 296 298 302 303 304 306 310 312 311 312 315 316 317 317 321 330 333 341 347 348 349 347 344 346 346 348 351 352
296 295 291 296 289 296 300 302 302 309 310 310 312 314 316 318 319 318 316 319 330 340 343 343 345 346 345 342 339 342 343 344
Wind_Speed
4 3 9 4 5 1 8 11 4 1 2 2 2 2 10 2 15 18 17 15 15 17 16 16 15 14 14 15 15 15 15 15
5 9 5 2 7 3 9 3 4 3 2 3 5 6 4 14 15 17 16 15 16 16 15 16 16 15 14 14 14 14 14 14
4 7 3 4 2 5 6 7 7 0 0 2 4 5 12 16 15 17 15 13 16 15 16 17 17 17 16 15 15 14 14 14
10 4 3 3 4 4 4 5 7 5 3 4 3 7 11 13 15 16 16 14 13 14 14 15 16 16 16 16 15 14 13 12
3 4 3 2 2 2 5 6 3 1 7 1 5 7 10 10 13 14 14 13 12 13 13 14 15 15 15 15 14 14 13 11
4 5 2 2 1 1 4 4 8 2 5 3 5 10 11 10 12 13 13 13 13 12 13 13 12 14 15 15 14 13 12 11
7 5 2 1 3 3 4 6 4 4 3 3 15 13 11 11 11 11 11 12 12 12 12 12 12 12 12 14 13 12 11 10
4 4 6 3 2 5 5 6 2 2 6 10 14 13 12 12 12 13 15 13 12 12 12 11 9 11 11 10 9 10 10 10
6 9 5 4 4 2 4 0 5 6 1 8 11 11 12 11 11 13 12 11 13 11 11 12 10 8 6 6 7 7 10 9
9 5 4 7 3 6 5 7 4 8 4 8 11 11 11 12 13 13 14 14 14 14 12 12 8 9 8 8 8 7 8 9
13 24 14 6 10 8 10 11 12 9 7 7 10 11 11 11 10 11 14 16 17 16 14 12 12 9 9 9 8 8 8 9
16 15 10 8 10 6 8 9 10 5 7 8 9 11 8 10 13 14 14 16 16 18 17 15 14 13 10 9 9 8 8 9
13 13 9 5 10 11 15 7 9 9 6 7 10 8 12 13 12 15 15 13 16 15 16 16 16 14 11 9 10 9 8 10
7 12 8 10 16 7 1 3 7 5 7 8 11 14 13 12 11 11 10 13 13 13 16 17 15 11 9 10 9 8 8 8
5 13 4 9 4 4 2 4 8 7 6 9 12 11 12 14 13 12 12 11 12 14 16 16 14 12 12 12 10 9 8 8
9 5 6 6 5 8 3 2 5 6 7 9 11 16 12 6 10 13 13 11 11 10 12 13 10 9 8 8 8 8 8 8
3 4 1 6 5 7 1 6 5 5 6 9 8 7 8 7 9 11 11 11 14 13 13 11 10 10 9 12 9 8 8 10
2 3 5 3 6 7 7 4 2 6 8 10 11 10 7 8 4 2 4 8 10 13 13 13 10 8 4 8 6 6 6 7
6 1 3 1 4 4 2 2 1 4 6 7 11 14 15 13 10 8 7 7 10 11 10 10 11 8 6 6 4 5 5 4
8 3 5 2 2 3 3 4 1 8 11 12 12 11 11 14 12 10 11 10 8 7 6 6 8 8 10 6 5 3 5 4
Wind_Direction
237 203 213 194 175 50 304 317 291 276 334 19 34 95 151 135 159 156 154 155 156 157 157 155 149 143 133 131 131 131 132 134
240 213 210 222 140 294 325 10 4 349 249 106 4 126 159 142 152 159 155 158 151 156 158 154 150 147 139 136 134 136 139 139
241 226 260 230 253 295 308 304 320 148 65 92 74 87 132 143 155 161 157 162 161 159 160 159 155 153 149 147 146 148 148 149
232 226 240 257 244 262 287 287 298 210 156 139 112 139 148 151 161 163 159 164 163 164 164 163 160 157 154 153 153 153 152 155
246 251 252 235 106 173 322 298 37 310 177 91 175 136 145 152 156 160 162 164 169 175 173 169 165 161 158 157 157 157 158 160
218 238 252 227 306 283 338 338 317 267 187 151 127 140 136 148 157 163 169 175 176 180 181 182 175 167 164 163 163 162 164 166
224 210 229 182 2 350 304 306 323 355 330 11 134 140 139 148 161 173 182 184 186 184 185 185 183 178 168 169 167 166 169 171
238 231 257 263 19 326 325 346 352 12 59 123 145 156 160 172 177 190 193 193 193 195 193 190 186 179 184 182 188 190 188 187
247 235 241 268 314 329 328 38 52 17 77 156 165 172 176 186 197 200 200 200 201 199 198 201 196 188 187 189 188 197 199 197
314 262 241 274 307 297 270 257 312 324 295 187 184 189 194 198 200 197 200 205 202 204 202 205 202 200 193 195 191 197 202 203
261 270 269 257 258 266 262 267 283 286 246 232 204 204 213 223 223 210 210 205 204 199 201 203 209 205 206 207 197 198 204 202
251 253 267 249 251 195 266 261 272 235 245 246 235 217 219 218 224 218 219 216 208 205 201 200 205 205 204 205 200 194 209 204
224 250 244 238 236 203 244 272 265 279 269 219 239 249 233 225 222 221 220 223 214 206 207 209 210 204 203 205 205 203 202 207
194 203 233 195 258 246 182 220 255 265 284 267 241 228 237 241 233 218 223 218 212 207 204 205 211 209 208 207 207 206 204 201
210 195 144 201 209 229 351 241 253 247 269 281 271 248 237 240 240 246 226 220 210 207 208 206 201 203 210 211 210 212 207 205
197 153 172 182 222 277 278 222 254 272 280 287 268 255 253 240 238 242 241 232 225 215 216 201 196 195 202 212 223 216 214 214
184 156 237 201 254 270 256 244 252 287 323 327 293 288 288 277 236 236 237 218 212 202 205 190 190 193 207 214 212 216 220 217
256 249 211 228 248 282 283 271 305 336 344 347 339 341 343 330 302 264 248 239 238 226 202 198 195 197 204 198 210 219 212 218
248 76 220 242 235 229 222 258 145 23 3 7 355 339 337 341 336 334 279 254 230 222 221 213 202 168 129 126 125 174 179 157
237 202 251 289 266 238 233 256 126 21 10 4 2 358 351 349 355 345 322 313 284 247 199 184 194 183 184 180 178 158 148 126